CST,Max TemperatureF,Mean TemperatureF,Min TemperatureF,Max Dew PointF,MeanDew PointF,Min DewpointF,Max Humidity, Mean Humidity, Min Humidity, Max Sea Level PressureIn, Mean Sea Level PressureIn, Min Sea Level PressureIn, Max VisibilityMiles, Mean VisibilityMiles, Min VisibilityMiles, Max Wind SpeedMPH, Mean Wind SpeedMPH, Max Gust SpeedMPH,PrecipitationIn, CloudCover, Events, WindDirDegrees
2012-11-1,37,32,26,34,25,21,93,78,69,30.14,30.11,30.05,10,10,10,20,14,25,0.00,8,,354
2012-11-2,35,30,26,30,26,23,100,84,65,30.18,30.15,30.11,10,9,1,12,7,,0.04,7,,93
2012-11-3,37,32,26,34,30,25,100,90,75,30.24,30.20,30.17,10,9,2,8,5,,0.02,7,,97
2012-11-4,37,32,28,34,30,27,100,88,75,30.23,30.21,30.17,10,10,10,7,4,,0.00,7,,93
2012-11-5,42,37,32,36,32,28,100,87,66,30.23,30.04,29.69,10,9,3,18,8,28,0.08,7,,166
2012-11-6,39,37,35,37,36,34,100,93,87,30.00,29.82,29.65,10,9,2,23,15,30,0.01,8,,303
2012-11-7,42,38,33,37,35,34,100,90,76,30.07,29.97,29.80,10,9,0,17,7,22,0.00,6,,154
2012-11-8,42,36,28,37,33,27,100,86,75,30.19,29.96,29.76,10,9,2,20,13,24,0.01,6,,321
2012-11-9,33,30,28,27,25,25,93,81,70,30.21,30.13,29.99,10,10,10,23,14,28,0.00,8,,51
2012-11-10,35,32,28,34,31,25,100,94,80,29.98,29.71,29.47,10,5,2,20,13,24,0.03,8,,57
2012-11-11,33,24,15,32,20,12,93,89,80,29.76,29.67,29.47,10,8,2,12,9,,0.00,8,,274
2012-11-12,21,16,10,19,15,9,100,91,79,30.16,29.97,29.76,10,8,2,15,9,21,0.00,7,,265
2012-11-13,26,18,10,23,17,9,100,89,80,30.23,30.19,30.15,10,10,5,9,5,,0.00,3,,191
2012-11-14,37,26,14,36,26,12,100,92,79,30.21,30.10,29.99,10,9,5,14,3,18,0.00,1,,176
2012-11-15,35,26,17,34,19,12,100,80,55,30.45,30.31,30.00,10,10,10,16,9,20,0.00,0,,295
2012-11-16,39,28,17,25,17,12,100,64,44,30.44,30.26,30.08,10,10,10,21,10,25,0.00,0,,158
2012-11-17,42,36,30,36,32,25,100,84,65,30.10,30.06,30.03,10,10,8,10,6,,0.00,2,,160
2012-11-18,48,40,33,39,35,30,93,82,66,30.03,29.97,29.91,10,10,10,12,7,,0.00,2,,131
2012-11-19,44,35,26,37,33,25,100,86,71,30.15,30.01,29.89,10,8,2,13,7,,0.00,1,,254
2012-11-20,46,34,21,36,27,19,100,79,53,30.15,30.02,29.87,10,7,0,15,4,,0.00,1,,167
2012-11-21,53,42,30,39,33,28,100,79,54,29.88,29.76,29.53,10,10,7,10,6,,0.00,0,,139
2012-11-22,35,24,12,34,22,10,100,91,86,30.17,29.82,29.51,10,5,0,29,14,36,0.00,7,,311
2012-11-23,15,10,6,12,10,1,100,84,73,30.43,30.37,30.19,10,8,2,26,18,33,0.00,7,,323
2012-11-24,23,20,19,19,19,18,100,93,86,30.34,29.94,29.76,10,9,1,21,7,30,0.00,7,,185
2012-11-25,23,19,15,21,16,9,93,85,73,30.25,30.00,29.85,10,9,3,22,12,28,0.00,5,,299
2012-11-26,,,,,,,,,,30.38,30.27,30.11,10,10,4,16,7,18,0.00,3,,227
2012-11-27,19,12,6,14,8,-6,92,81,33,30.25,30.13,30.06,10,8,2,14,9,17,0.00,6,,285
2012-11-28,28,16,3,27,16,1,100,90,79,30.26,30.14,30.01,10,9,5,20,7,25,0.00,6,,237
2012-11-29,17,14,10,12,8,3,92,77,63,30.24,30.19,30.15,10,10,10,17,13,23,0.00,5,,58
2012-11-30,30,24,17,28,22,12,100,93,79,30.21,30.06,29.85,10,6,3,15,9,17,0.00,8,,125